Regional Weather Roundup
Issued by NWS

Home | Current Version | Previous Version | Text Only | Print | Product List | Glossary On
Versions: 1 2 3 4 5 6 7 8 9 10 11 12 13 14 15 16 17 18 19 20 21 22 23 24 25 26 27 28 29 30 31 32 33 34 35 36 37 38 39 40 41 42 43 44 45 46 47 48 49 50
000
ASUS43 KMPX 282101
RWRMN
WEATHER ROUNDUP FOR MINNESOTA
NATIONAL WEATHER SERVICE TWIN CITIES/CHANHASSEN MN
400 PM CDT SUN AUG 28 2016


NOTE: "FAIR" INDICATES FEW OR NO CLOUDS BELOW 12,000 FEET WITH NO
SIGNIFICANT WEATHER AND/OR OBSTRUCTIONS TO VISIBILITY. N/A MEANS
CURRENT SKY AND/OR WEATHER CONDITIONS ARE NOT AVAILABLE.

MNZ060>063-068>070-282200-
   Twin Cities Metro

CITY           SKY/WX    TMP DP  RH WIND       PRES   REMARKS
TWIN CITIES    MOSUNNY   84  66  54 S13G21    30.10F
ST PAUL        PTSUNNY   82  68  62 SE9       30.10F
CRYSTAL        MOSUNNY   84  66  54 SE10      30.08F
BLAINE         PTSUNNY   82  70  65 SE9       30.10F
LAKEVILLE      MOSUNNY   81  70  69 S7        30.11F
EDEN PRAIRIE   MOSUNNY   84  68  58 S14       30.09F
LAKEVILLE      MOSUNNY   81  70  69 S7        30.11F
SOUTH ST PAUL  MOSUNNY   83  66  56 S9        30.10F
LAKE ELMO      PTSUNNY   81  70  69 SE10      30.12F
$$
MNZ001>005-007-008-013>017-022>024-027-028-282200-
   Northwest Minnesota

CITY           SKY/WX    TMP DP  RH WIND       PRES   REMARKS
BEMIDJI        CLOUDY    77  64  64 SE12      30.05F
HALLOCK        SUNNY     81  64  57 SE14      29.95S
ROSEAU         SUNNY     81  64  57 SE13      30.02S
WARROAD        SUNNY     75  68  78 E8        30.04S
THIEF RVR FALL SUNNY     80  64  58 SE13G22   30.00F
CROOKSTON      SUNNY     81  66  61 S18G24    29.97F
FOSSTON        MOSUNNY   81  70  69 SE10G20   30.02S
DETROIT LAKES  SUNNY     81  64  57 SE15G21   30.02F
MOORHEAD       SUNNY     86  70  58 SE18      29.94F HX  90
PARK RAPIDS    MOSUNNY   82  63  52 S16       30.05F
MAHNOMEN       FAIR      81  67  62 SE13G18   30.00F
$$
MNZ006-009>011-018-025>026-282200-
   North Central Minnesota

CITY           SKY/WX    TMP DP  RH WIND       PRES   REMARKS
BAUDETTE       SUNNY     75  64  68 SE12      30.06F
FLAG ISLAND    MOSUNNY   70  63  78 CALM      30.05F
INTL FALLS     MOSUNNY   73  63  70 S8        30.10F
WASKISH          N/A     75  64  69 SE6       30.07S
BIG FORK       SUNNY     77  63  61 S8        30.11S
LONGVILLE      MOSUNNY   75  64  69 SE7       30.09S
GRAND RAPIDS   PTSUNNY   77  61  57 S12G20    30.13S
ORR            MOSUNNY   73  61  64 CALM      30.10F
COOK           SUNNY     73  63  68 SE5       30.14S
WALKER         MOCLDY    76  65  69 SE7       30.07S
$$
MNZ012-019>021-037-282200-
   Northeast Minnesota

CITY           SKY/WX    TMP DP  RH WIND       PRES   REMARKS
DULUTH         MOSUNNY   73  63  70 SE9       30.15F
ELY            SUNNY     73  61  64 S3        30.15F
HIBBING        MOSUNNY   74  62  66 SE10      30.13F
EVELETH        MOSUNNY   78  63  59 SE8       30.15S
DULUTH HARBOR  SUNNY     72  64  78 NE8       30.15S
TWO HARBORS    SUNNY     75  64  69 S7        30.14F
SILVER BAY     SUNNY     73  63  68 S6        30.15F
G MARAIS ARPRT MOSUNNY   63  55  77 S6        30.21S
$$
MNZ029>031-032-039>041-046>048-054>057-064-282200-
   West Central Minnesota

CITY           SKY/WX    TMP DP  RH WIND       PRES   REMARKS
FERGUS FALLS   SUNNY     84  72  65 S20       29.98F
WHEATON        SUNNY     86  75  70 SE15G23   29.97F HX  95
MORRIS         SUNNY     88  72  58 S17G23    29.99F HX  94
ALEXANDRIA     SUNNY     84  68  58 S21       30.05F
ELBOW LAKE     FAIR      85  73  65 SE18      30.00F HAZE    HX  91
WADENA         MOSUNNY   81  66  61 SE10G17   30.05S
GLENWOOD       SUNNY     84  70  61 SE14      30.06S
APPLETON       SUNNY     86  72  62 SE16G23   29.99F HX  92
BENSON         SUNNY     84  72  65 S16       30.02S
ORTONVILLE     SUNNY     86  73  66 S15       29.98F HX  93
MADISON        SUNNY     86  73  66 S13G24    30.00S HX  93
WILLMAR        FAIR      84  73  70 S12G21    30.07S HX  91
$$
MNZ033>034-036-042>043-049>051-058-059-282200-
   Central Minnesota

CITY           SKY/WX    TMP DP  RH WIND       PRES   REMARKS
ST CLOUD       MOSUNNY   81  73  76 SE13      30.08F
SAUK CENTRE    FAIR      83  69  61 S17       30.06F
PAYNESVILLE    SUNNY     84  68  58 S13       30.08S
AITKIN         MOSUNNY   81  63  54 S15       30.09F
PINE RIVER     PTSUNNY   79  68  69 SE12      30.10F
BRAINERD       PTSUNNY   80  68  66 S13       30.09S
STAPLES        MOSUNNY   79  66  65 S8G18     30.06F
LONG PRAIRIE   FAIR      79  70  73 E10       30.07S
LITTLE FALLS   MOSUNNY   77  68  73 SE9       30.08F
LITCHFIELD     SUNNY     84  72  65 S9G16     30.08F
BUFFALO        PTSUNNY   82  67  61 SE8       30.10F
MAPLE LAKE     MOSUNNY   83  72  69 S5        30.10S
HUTCHINSON     MOSUNNY   84  71  65 S10G16    30.10F
$$
MNZ037-044-045-052-053-282200-
   East Central Minnesota

CITY           SKY/WX    TMP DP  RH WIND       PRES   REMARKS
PRINCETON      MOSUNNY   82  72  69 SE10      30.10F
MORA           PTSUNNY   73  64  73 SE9       30.14S
CAMBRIDGE      MOSUNNY   81  68  65 SE9       30.10F
RUSH CITY      PTSUNNY   77  68  73 S7        30.12F
MOOSE LAKE     PTSUNNY   77  64  65 SE6       30.12F
HINCKLEY       FAIR      77  68  73 S7        30.13F
CLOQUET        MOSUNNY   73  61  64 SE8       30.14F
MCGREGOR       MOSUNNY   77  64  65 SE10      30.12F
$$
MNZ071>073-080-081-089-090-097-098-282200-
   Southwest Minnesota

CITY           SKY/WX    TMP DP  RH WIND       PRES   REMARKS
MONTEVIDEO     MOSUNNY   88  73  62 S14G22    30.04F HX  96
GRANITE FALLS  MOSUNNY   87  74  64 SE14G23   30.04F HX  95
CANBY          SUNNY     88  72  58 S13G22    30.02S HX  94
MARSHALL       MOSUNNY   86  73  65 S20       30.03F HX  93
REDWOOD FALLS  MOSUNNY   85  72  65 SE16      30.05F HX  91
OLIVIA         PTSUNNY   82  70  65 SE12      30.06S
PIPESTONE      MOSUNNY   84  72  65 S13       30.06F
WINDOM         MOSUNNY   84  70  61 SE13      30.08F
WORTHINGTON    MOSUNNY   84  73  69 S15G21    30.08F HX  90
JACKSON          N/A     86  68  54 S12G22    30.10F
TRACY          MOSUNNY   86  74  66 S13       30.06F HX  94
SLAYTON        MOSUNNY   84  72  65 SE14G22   30.08F
$$
MNZ065>067-074>077-082>085-091>093-282200-
   South Central Minnesota

CITY           SKY/WX    TMP DP  RH WIND       PRES   REMARKS
MANKATO        MOSUNNY   82  68  61 S13       30.10F
NEW ULM        SUNNY     82  68  61 S14       30.08F
ST JAMES       MOSUNNY   79  64  61 SE9       30.09F
FAIRMONT       MOSUNNY   84  69  60 S12       30.10F
GLENCOE        PTSUNNY   84  73  69 SE9       30.09S HX  91
FARIBAULT      PTSUNNY   84  68  58 S9        30.12F
OWATONNA       MOSUNNY   82  66  57 S7        30.12F
WASECA         MOSUNNY   81  68  65 S6        30.12F
ALBERT LEA     MOSUNNY   82  68  61 SE9       30.12F
$$
MNZ078>079-086>088-094>096-282200-
   Southeast Minnesota

CITY           SKY/WX    TMP DP  RH WIND       PRES   REMARKS
ROCHESTER      MOSUNNY   83  68  60 S7        30.15F
RED WING       MOSUNNY   84  66  54 S8        30.11S
DODGE CENTER   MOSUNNY   84  66  54 S7        30.14F
WINONA         MOSUNNY   79  68  69 E7        30.14F
AUSTIN         MOSUNNY   82  68  61 S5        30.12F
PRESTON        MOSUNNY   81  67  61 S7        30.15F
$$
ABBREVIATIONS USED IN REMARKS
   TC - TEMPERATURES IN CELSIUS
  WCI - WIND CHILL INDEX
   HX - HEAT INDEX
  VSB - VISIBILITY
$$




USA.gov is the U.S. government's official web portal to all federal, state and local government web resources and services.